Regional Weather Roundup
Issued by NWS Upton, NY

Current Version | Previous Version | Graphics & Text | Print | Product List | Glossary Off
Versions: 1 2 3 4 5 6 7 8 9 10 11 12 13 14 15 16 17 18 19 20 21 22 23 24 25 26

000
ASUS41 KOKX 201005
RWROKX

REGIONAL WEATHER ROUNDUP
NATIONAL WEATHER SERVICE NEW YORK NY
600 AM EDT SUN APR 20 2014

NOTE: "FAIR" INDICATES FEW OR NO CLOUDS BELOW 12,000 FEET WITH NO
SIGNIFICANT WEATHER AND/OR OBSTRUCTIONS TO VISIBILITY.

NYZ071-072-176-178-NJZ106-104-201100-
NEW YORK CITY METRO AREA


CITY           SKY/WX    TMP DP  RH WIND       PRES   REMARKS
CENTRAL PARK   PTCLDY    47  33  58 E9        30.46R
LAGUARDIA APRT PTCLDY    46  34  62 E8        30.44R
KENNEDY INTL   MOCLDY    46  31  55 NE9       30.45R
NEWARK/LIBERTY MOCLDY    48  34  58 NE8       30.43R
TETERBORO      PTCLDY    48  34  58 NE3       30.44R
$$

NYZ177-179-078>081-201100-
LONG ISLAND NEW YORK

CITY           SKY/WX    TMP DP  RH WIND       PRES   REMARKS
FARMINGDALE    PTCLDY    43  28  55 NE8       30.44R
ISLIP          MOCLDY    43  26  51 NE9       30.43R
SHIRLEY        PTCLDY    40  28  62 N3        30.45R
WESTHAMPTON    PTCLDY    44  26  49 NE9       30.45R
MONTAUK POINT    N/A     43  31  62 N6        30.46R
$$

NYZ052-065-067-201100-
HUDSON VALLEY

CITY           SKY/WX    TMP DP  RH WIND       PRES   REMARKS
WHITE PLAINS   PTCLDY    43  23  45 NE5       30.44R
NEWBURGH       NOT AVBL
MONTGOMERY     FAIR      34  26  72 NE3       30.45R
POUGHKEEPSIE   PTCLDY    32  26  78 CALM      30.47R
ALBANY         PTCLDY    31  24  75 CALM      30.49R
$$

NJZ001-105-106-008-010-013-015-019>022-104-201100-
NEW JERSEY

CITY           SKY/WX    TMP DP  RH WIND       PRES   REMARKS
NEWARK/LIBERTY MOCLDY    48  34  58 NE8       30.43R
TETERBORO      PTCLDY    48  34  58 NE3       30.44R
CALDWELL       PTCLDY    44  26  49 CALM      30.45R
MORRISTOWN     PTCLDY    43  30  61 N3        30.44R
SOMERVILLE     MOCLDY    46  27  47 NE3       30.41R
LINDEN         FAIR      50  35  58 E10       30.45R
SUSSEX         PTCLDY    41  26  55 NE6       30.44R
ANDOVER          N/A     40  28  62 NE5       30.43R
TRENTON        MOCLDY    47  34  60 E14G21    30.41R
MILLVILLE      CLOUDY    47  33  58 NE10G20   30.36R
ATLANTIC CITY  CLOUDY    47  37  68 E17       30.38R
WRIGHTSTOWN    MOCLDY    46  35  67 E13G22    30.39R
TOMS RIVER     CLOUDY    46  36  66 E5        30.42R
BELMAR         MOCLDY    46  32  57 E13G22    30.42R
$$

PAZ047>061-062-071-201100-
EASTERN PENNSYLVANIA

CITY           SKY/WX    TMP DP  RH WIND       PRES   REMARKS
PHILADELPHIA   CLOUDY    50  29  44 NE13G22   30.39R
ALLENTOWN      MOCLDY    43  26  51 NE9       30.41R
SCRANTON       PTCLDY    39  24  55 NE6       30.41R WCI  35
$$

CTZ002-004>006-009-010-012-RIZ004-006-007-MAZ004-011-015-201100-
SOUTHERN NEW ENGLAND
 IN CT

CITY           SKY/WX    TMP DP  RH WIND       PRES   REMARKS
BRADLEY INTL   PTCLDY    35  25  66 N7        30.47R WCI  29
HARTFORD       CLEAR     36  28  73 CALM      30.48R
DANBURY        CLEAR     40  23  50 E3        30.47R
WTRBRY/OXFORD  CLEAR     39  21  48 NE9       30.47R WCI  33
BRIDGEPORT     CLEAR     44  27  51 NE7       30.47R
MERIDEN        CLEAR     36  28  73 CALM      30.47R
NEW HAVEN      MOCLDY    41  26  55 N5        30.46R
CHESTER        FAIR      41  27  56 N5        30.46R
GROTON         CLEAR     39  26  59 N6        30.46R WCI  35
WILLIMANTIC    CLEAR     33  27  78 CALM      30.47R

 IN RI

CITY           SKY/WX    TMP DP  RH WIND       PRES   REMARKS
PROVIDENCE     PTCLDY    39  24  55 N7        30.46R WCI  34
BLOCK ISLAND   CLEAR     43  30  61 NE7       30.44R
WESTERLY       CLEAR     37  26  64 N6        30.46R WCI  32

 IN MA

CITY           SKY/WX    TMP DP  RH WIND       PRES   REMARKS
BOSTON         PTCLDY    41  23  48 N6        30.48R
WORCESTER      CLEAR     37  21  52 N7        30.45R WCI  32
WESTFIELD      CLEAR     30  26  85 N3        30.48R
PROVINCETOWN   PTCLDY    37  34  87 MISG      30.46R
NANTUCKET      CLEAR     35  29  78 NE8       30.43R WCI  29
$$

ANZ330-335-338-340-345-350-353-355-201100-
COASTAL MARINE OBSERVATIONS


STATION/POSITION TIME  SKY/WX   TEMP    WIND        PRES    VSBY  WAVE
                                AIR SEA DIR/SP/G                  HT/PER
                 (UTC)          (F)     (DEG/KT/KT) (MB)    (MI)  (FT/S)
NY HARB ENTRANCE 1000            45 44  290/ 14/ 17 1030.2
4S FIRE IS       0900               45                N/A           4/ 9
23SW MTP         1000            43 42   40/ 12/ 14 1030.1          3/10
HUDSON CANYON    0900            45 44   50/ 21/ 23 1028.0          4/ 8
EXECUTION ROCKS  1000            45 44   80/ 10/ 14   N/A
WESTERN LI SOUND 1000            44      70/  8/ 10   N/A           1/ 3
CENTRAL LI SOUND 1000            43 42   20/  6/  8   N/A           0
EASTERN LI SOUND NOT AVBL
ROBBINS REEF     1000            48      70/ 16/ 19   N/A
$$


>>>>>>>>>>>>>>>>>>>>>>>>>>>> KEY <<<<<<<<<<<<<<<<<<<<<<<<<<<
>                                                          <
>     SKY/WX - SKY CONDITION/PRESENT WEATHER               <
>     TMP    - TEMPERATURE IN FAHRENHEIT                   <
>     DP     - DEWPOINT IN FAHRENHEIT                      <
>     RH     - RELATIVE HUMIDITY IN PERCENT                <
>     WIND   - DIRECTION AND SPEED IN MPH                  <
>     PRES   - MEAN SEA LEVEL PRESSURE IN INCHES OF HG     <
>     WCI    - WIND CHILL INDEX                            <
>     VSB    - VISIBILITY IN MILES                         <
>     HX     - HEAT INDEX                                  <
>     TC     - TEMPERATURE IN CELSIUS                      <
>     VRB    - VARIABLE WIND DIRECTION                     <
>                                                          <
>>>>>>>>>>>>>>>>>>>>>>>>>>>> KEY <<<<<<<<<<<<<<<<<<<<<<<<<<<





USA.gov is the U.S. government's official web portal to all federal, state and local government web resources and services.